Weather History for KPWM - April, 2012

Change the Weather History Date:

Thursday, April 19, 2012

  Actual Average Record
Temperature  
Mean Temperature 45 °F 45 °F  
Max Temperature 56 °F 55 °F 75 °F (1973)
Min Temperature 34 °F 36 °F 24 °F (1962)
Degree Days  
Heating Degree Days 20 20  
Month to date heating degree days 344 435  
Since 1 July heating degree days 5338 6453  
Cooling Degree Days 0 0  
Month to date cooling degree days 1 0  
Year to date cooling degree days 1 0  
Moisture  
Dew Point 39 °F    
Average Humidity 78    
Maximum Humidity 96    
Minimum Humidity 59    
Precipitation  
Precipitation 0.00 in 0.13 in 2.19 in (1924)
Month to date precipitation 0.16 2.76  
Year to date precipitation 7.97 13.63  
Snow  
Snow 0.00 in 0.10 in 7.50 in (1925)
Month to date snowfall T 2.5  
Since 1 July snowfall 43.9 61.6  
Snow Depth 0.00 in    
Sea Level Pressure  
Sea Level Pressure 30.07 in    
Wind  
Wind Speed 9 mph (NE)    
Max Wind Speed 18 mph    
Max Gust Speed 22 mph    
Visibility 10 miles    
Events      
T = Trace of Precipitation, MM = Missing Value Source: NWS Daily Summary

Daily Weather History Graph

Daily Weather History Graph

Search for Another Location

Airport or City:

Trip Planner

Search our weather history database for the weather conditions in past years. The results will help you decide how hot, cold, wet, or windy it might be!

Date:

Astronomy

Apr. 19, 2012 Rise Set
Actual Time 5:51 AM EDT 7:30 PM EDT
Civil Twilight 5:20 AM EDT 8:00 PM EDT
Nautical Twilight 4:44 AM EDT 8:37 PM EDT
Astronomical Twilight 4:04 AM EDT 9:16 PM EDT
Moon 4:45 AM EDT (4/19) 6:13 PM EDT (4/19)
Length of Visible Light 14h 39m
Length of Day
13h 38m
Waning Crescent, 2% of the Moon is Illuminated
Apr 19
Waning Crescent
Apr 21
New
Apr 29
First Quarter
May 5
Full
May 12
Last Quarter

Hourly Weather History & Observations

Time (EDT) Temp. Windchill Dew Point Humidity Pressure Visibility Wind Dir Wind Speed Gust Speed Precip Events Conditions
12:51 AM 42.1 °F 38.4 °F 34.0 °F 73% 30.14 in 10.0 mi North 5.8 mph - N/A   Clear
1:51 AM 39.9 °F 35.1 °F 34.0 °F 79% 30.13 in 10.0 mi NNE 6.9 mph - N/A   Clear
2:51 AM 37.0 °F 31.0 °F 33.1 °F 86% 30.12 in 10.0 mi NNW 8.1 mph - N/A   Clear
3:51 AM 37.9 °F 32.1 °F 33.1 °F 83% 30.11 in 10.0 mi NNE 8.1 mph - N/A   Clear
4:51 AM 35.1 °F 29.3 °F 32.0 °F 89% 30.12 in 10.0 mi North 6.9 mph - N/A   Clear
5:51 AM 34.0 °F 27.2 °F 32.0 °F 92% 30.11 in 10.0 mi NNE 8.1 mph - N/A   Clear
6:51 AM 37.9 °F 33.5 °F 34.0 °F 86% 30.12 in 10.0 mi NNE 5.8 mph - N/A   Clear
7:21 AM 39.2 °F 34.2 °F 35.6 °F 87% 30.13 in 10.0 mi Variable 6.9 mph - N/A   Scattered Clouds
7:30 AM 41.0 °F 36.4 °F 37.4 °F 87% 30.12 in 10.0 mi North 6.9 mph - N/A   Mostly Cloudy
7:51 AM 44.1 °F 39.0 °F 39.9 °F 85% 30.12 in 10.0 mi NE 9.2 mph - N/A   Mostly Cloudy
8:07 AM 46.4 °F 41.9 °F 41.0 °F 81% 30.12 in 10.0 mi NNE 9.2 mph - N/A   Partly Cloudy
8:51 AM 50.0 °F - 42.1 °F 74% 30.12 in 10.0 mi NE 12.7 mph - N/A   Clear
9:51 AM 52.0 °F - 43.0 °F 71% 30.11 in 10.0 mi ENE 16.1 mph - N/A   Clear
10:51 AM 53.1 °F - 39.9 °F 61% 30.10 in 10.0 mi ENE 16.1 mph - N/A   Clear
11:51 AM 55.0 °F - 41.0 °F 59% 30.09 in 10.0 mi ESE 4.6 mph - N/A   Clear
12:51 PM 55.0 °F - 41.0 °F 59% 30.08 in 10.0 mi Variable 4.6 mph - N/A   Clear
1:51 PM 54.0 °F - 41.0 °F 62% 30.07 in 10.0 mi Variable 6.9 mph 16.1 mph N/A   Clear
2:51 PM 55.4 °F - 42.8 °F 63% 30.05 in 10.0 mi ESE 12.7 mph - N/A   Clear
3:51 PM 53.1 °F - 42.1 °F 66% 30.04 in 10.0 mi SE 9.2 mph 21.9 mph N/A   Clear
4:51 PM 53.1 °F - 41.0 °F 64% 30.02 in 10.0 mi Variable 6.9 mph - N/A   Clear
5:51 PM 51.1 °F - 42.1 °F 71% 30.01 in 10.0 mi SE 8.1 mph - N/A   Clear
6:51 PM 50.0 °F - 41.0 °F 71% 30.00 in 10.0 mi SSW 9.2 mph - N/A   Clear
7:51 PM 48.0 °F - 42.1 °F 80% 30.00 in 10.0 mi ENE 6.9 mph - N/A   Clear
8:51 PM 46.9 °F - 43.0 °F 86% 30.01 in 10.0 mi NE 8.1 mph - N/A   Clear
9:51 PM 46.9 °F - 43.0 °F 86% 30.01 in 10.0 mi NE 9.2 mph - N/A   Clear
10:51 PM 44.1 °F 39.5 °F 42.1 °F 93% 30.00 in 10.0 mi NNE 8.1 mph - N/A   Clear
11:51 PM 44.1 °F 39.5 °F 41.0 °F 89% 29.99 in 10.0 mi NNE 8.1 mph - N/A   Clear